"read_dt","SO2 (ppb)","flags","PMT voltage (V)","lamp voltage (V)","lamp intensity (Hz)","internal temp (C)","react chamber temp (C)","sample flow (l/min)","pres (mmHg)","SO2 bkg (ppb)","SO2 coefficient"
2014-05-24 00:00:00,2049E-3,5C000000,-0724,0851,11881,032.6,045.6,0.479,729.8,01.19,0.508
2014-05-24 00:01:00,1970E-3,5C000000,-0724,0852,12110,032.6,045.7,0.478,729.8,01.19,0.508
2014-05-24 00:02:00,1930E-3,5C000000,-0724,0853,11935,032.6,045.7,0.479,729.8,01.19,0.508
2014-05-24 00:03:00,1907E-3,5C000000,-0724,0852,11971,032.6,045.7,0.478,729.9,01.19,0.508
2014-05-24 00:04:00,1948E-3,5C000000,-0724,0852,12138,032.6,045.7,0.479,729.9,01.19,0.508
2014-05-24 00:05:00,2012E-3,5C000000,-0724,0851,11883,032.6,045.7,0.478,729.8,01.19,0.508
2014-05-24 00:06:00,2019E-3,5C000000,-0724,0852,12007,032.6,045.7,0.479,729.8,01.19,0.508
2014-05-24 00:07:00,2009E-3,5C000000,-0724,0853,11972,032.6,045.6,0.478,729.8,01.19,0.508
2014-05-24 00:08:00,1929E-3,5C000000,-0724,0853,11896,032.6,045.7,0.479,729.8,01.19,0.508
2014-05-24 00:09:00,1808E-3,5C000000,-0724,0851,11982,032.6,045.6,0.478,729.8,01.19,0.508
2014-05-24 00:10:00,1831E-3,5C000000,-0724,0852,12129,032.6,045.6,0.479,729.8,01.19,0.508
2014-05-24 00:11:00,2074E-3,5C000000,-0724,0852,12054,032.6,045.7,0.478,729.8,01.19,0.508
2014-05-24 00:12:00,2027E-3,5C000000,-0724,0852,11937,032.6,045.7,0.479,729.8,01.19,0.508
2014-05-24 00:13:00,1929E-3,5C000000,-0724,0852,12027,032.6,045.7,0.478,729.8,01.19,0.508
2014-05-24 00:14:00,1791E-3,5C000000,-0724,0852,11874,032.6,045.7,0.479,729.8,01.19,0.508
2014-05-24 00:15:00,1768E-3,5C000000,-0724,0852,11741,032.6,045.7,0.478,729.8,01.19,0.508
2014-05-24 00:16:00,2039E-3,5C000000,-0724,0852,11873,032.6,045.7,0.479,729.8,01.19,0.508
2014-05-24 00:17:00,1843E-3,5C000000,-0724,0853,11903,032.7,045.6,0.478,729.8,01.19,0.508
2014-05-24 00:18:00,1803E-3,5C000000,-0724,0853,11972,032.6,045.6,0.479,729.8,01.19,0.508
2014-05-24 00:19:00,1958E-3,5C000000,-0724,0852,11986,032.7,045.6,0.478,729.8,01.19,0.508
2014-05-24 00:20:00,1948E-3,5C000000,-0724,0853,11977,032.7,045.6,0.478,729.8,01.19,0.508
2014-05-24 00:21:00,1792E-3,5C000000,-0724,0854,11930,032.7,045.6,0.478,729.8,01.19,0.508
2014-05-24 00:22:00,1852E-3,5C000000,-0724,0853,11799,032.7,045.6,0.478,729.8,01.19,0.508
2014-05-24 00:23:00,1897E-3,5C000000,-0724,0853,12080,032.7,045.7,0.478,729.8,01.19,0.508
2014-05-24 00:24:00,1833E-3,5C000000,-0724,0852,11906,032.7,045.7,0.478,729.8,01.19,0.508
2014-05-24 00:25:00,1920E-3,5C000000,-0724,0852,11764,032.7,045.7,0.478,729.8,01.19,0.508
2014-05-24 00:26:00,1836E-3,5C000000,-0724,0852,11973,032.7,045.6,0.478,729.8,01.19,0.508
2014-05-24 00:27:00,1946E-3,5C000000,-0724,0852,11848,032.7,045.7,0.479,729.8,01.19,0.508
2014-05-24 00:28:00,1741E-3,5C000000,-0724,0854,11926,032.7,045.7,0.478,729.8,01.19,0.508
2014-05-24 00:29:00,1855E-3,5C000000,-0724,0852,11684,032.7,045.7,0.479,729.8,01.19,0.508
2014-05-24 00:30:00,1706E-3,5C000000,-0724,0852,11974,032.7,045.6,0.478,729.9,01.19,0.508
2014-05-24 00:31:00,1959E-3,5C000000,-0724,0852,11980,032.7,045.7,0.479,729.8,01.19,0.508
2014-05-24 00:32:00,1935E-3,5C000000,-0724,0853,12016,032.7,045.7,0.478,729.9,01.19,0.508
2014-05-24 00:33:00,1954E-3,5C000000,-0724,0852,11701,032.7,045.7,0.479,729.9,01.19,0.508
2014-05-24 00:34:00,1920E-3,5C000000,-0724,0853,11948,032.7,045.7,0.478,729.9,01.19,0.508
2014-05-24 00:35:00,2007E-3,5C000000,-0724,0852,12096,032.7,045.7,0.478,729.9,01.19,0.508
2014-05-24 00:36:00,1995E-3,5C000000,-0724,0853,12140,032.8,045.6,0.478,729.9,01.19,0.508
2014-05-24 00:37:00,1790E-3,5C000000,-0724,0853,11937,032.7,045.7,0.478,729.9,01.19,0.508
2014-05-24 00:38:00,1911E-3,5C000000,-0724,0853,12014,032.8,045.6,0.478,729.9,01.19,0.508
2014-05-24 00:39:00,1843E-3,5C000000,-0724,0852,11800,032.8,045.6,0.478,729.9,01.19,0.508
2014-05-24 00:40:00,1913E-3,5C000000,-0724,0852,11878,032.8,045.7,0.478,729.9,01.19,0.508
2014-05-24 00:41:00,1919E-3,5C000000,-0724,0852,11951,032.8,045.7,0.478,729.9,01.19,0.508
2014-05-24 00:42:00,1836E-3,5C000000,-0724,0853,12002,032.8,045.7,0.478,729.9,01.19,0.508
2014-05-24 00:43:00,1836E-3,5C000000,-0724,0852,12000,032.8,045.7,0.478,729.9,01.19,0.508
2014-05-24 00:44:00,1863E-3,5C000000,-0724,0852,12000,032.8,045.6,0.478,729.9,01.19,0.508
2014-05-24 00:45:00,1741E-3,5C000000,-0724,0852,12050,032.8,045.6,0.478,729.9,01.19,0.508
2014-05-24 00:46:00,1904E-3,5C000000,-0724,0853,11924,032.8,045.7,0.479,729.9,01.19,0.508
2014-05-24 00:47:00,1943E-3,5C000000,-0724,0853,11916,032.8,045.7,0.478,729.9,01.19,0.508
2014-05-24 00:48:00,1912E-3,5C000000,-0724,0853,11848,032.8,045.6,0.478,729.9,01.19,0.508
2014-05-24 00:49:00,1807E-3,5C000000,-0724,0854,11930,032.8,045.7,0.478,729.9,01.19,0.508
2014-05-24 00:50:00,1855E-3,5C000000,-0724,0852,12154,032.8,045.7,0.478,729.9,01.19,0.508
2014-05-24 00:51:00,1829E-3,5C000000,-0724,0853,11859,032.8,045.7,0.478,729.9,01.19,0.508
2014-05-24 00:52:00,1849E-3,5C000000,-0724,0852,11986,032.8,045.7,0.478,729.9,01.19,0.508
2014-05-24 00:53:00,1809E-3,5C000000,-0724,0852,11845,032.8,045.7,0.478,729.9,01.19,0.508
2014-05-24 00:54:00,1752E-3,5C000000,-0724,0853,11934,032.8,045.7,0.478,729.9,01.19,0.508
2014-05-24 00:55:00,1999E-3,5C000000,-0724,0853,12054,032.8,045.7,0.478,729.9,01.19,0.508
2014-05-24 00:56:00,1932E-3,5C000000,-0724,0852,11972,032.8,045.7,0.478,729.9,01.19,0.508
2014-05-24 00:57:00,1807E-3,5C000000,-0724,0853,12028,032.8,045.7,0.478,729.9,01.19,0.508
2014-05-24 00:58:00,1868E-3,5C000000,-0724,0853,11826,032.8,045.7,0.479,729.9,01.19,0.508
2014-05-24 00:59:00,1782E-3,5C000000,-0724,0852,11839,032.9,045.7,0.478,730.0,01.19,0.508
2014-05-24 01:00:00,1950E-3,5C000000,-0724,0852,12038,032.9,045.6,0.478,729.9,01.19,0.508
2014-05-24 01:01:00,1884E-3,5C000000,-0724,0852,11938,032.9,045.6,0.478,729.9,01.19,0.508
2014-05-24 01:02:00,1836E-3,5C000000,-0724,0852,11960,032.9,045.7,0.478,730.0,01.19,0.508
2014-05-24 01:03:00,1829E-3,5C000000,-0724,0853,12152,032.9,045.6,0.479,730.0,01.19,0.508
2014-05-24 01:04:00,1882E-3,5C000000,-0724,0852,12060,032.9,045.6,0.478,730.0,01.19,0.508
2014-05-24 01:05:00,1881E-3,5C000000,-0724,0852,11850,032.9,045.7,0.478,730.0,01.19,0.508
2014-05-24 01:06:00,1857E-3,5C000000,-0724,0852,12013,032.9,045.7,0.478,730.0,01.19,0.508
2014-05-24 01:07:00,1843E-3,5C000000,-0724,0852,12164,032.9,045.6,0.478,730.0,01.19,0.508
2014-05-24 01:08:00,1937E-3,5C000000,-0724,0852,12064,032.9,045.6,0.478,730.0,01.19,0.508
2014-05-24 01:09:00,1883E-3,5C000000,-0724,0852,11970,032.9,045.7,0.478,730.0,01.19,0.508
2014-05-24 01:10:00,1712E-3,5C000000,-0724,0852,12037,032.9,045.7,0.478,730.0,01.19,0.508
2014-05-24 01:11:00,1768E-3,5C000000,-0724,0853,12006,032.9,045.7,0.478,730.0,01.19,0.508
2014-05-24 01:12:00,1812E-3,5C000000,-0724,0852,12007,032.9,045.7,0.478,730.0,01.19,0.508
2014-05-24 01:13:00,2077E-3,5C000000,-0724,0854,12031,032.9,045.7,0.478,730.0,01.19,0.508
2014-05-24 01:14:00,1890E-3,5C000000,-0724,0853,12025,032.9,045.7,0.478,729.9,01.19,0.508
2014-05-24 01:15:00,1932E-3,5C000000,-0724,0852,11991,033.0,045.6,0.478,730.0,01.19,0.508
2014-05-24 01:16:00,1846E-3,5C000000,-0724,0852,11897,032.9,045.7,0.478,730.0,01.19,0.508
2014-05-24 01:17:00,1978E-3,5C000000,-0724,0852,12067,032.9,045.7,0.478,730.0,01.19,0.508
2014-05-24 01:18:00,1881E-3,5C000000,-0724,0852,11893,033.0,045.7,0.478,729.9,01.19,0.508
2014-05-24 01:19:00,1846E-3,5C000000,-0724,0852,11810,032.9,045.7,0.478,730.0,01.19,0.508
2014-05-24 01:20:00,1811E-3,5C000000,-0724,0853,12118,033.0,045.7,0.478,730.0,01.19,0.508
2014-05-24 01:21:00,1749E-3,5C000000,-0724,0852,12002,033.0,045.7,0.478,730.0,01.19,0.508
2014-05-24 01:22:00,1819E-3,5C000000,-0724,0853,11961,033.0,045.7,0.478,730.0,01.19,0.508
2014-05-24 01:23:00,1916E-3,5C000000,-0724,0853,11981,033.0,045.7,0.478,730.0,01.19,0.508
2014-05-24 01:24:00,1920E-3,5C000000,-0724,0852,12042,033.0,045.7,0.478,730.0,01.19,0.508
2014-05-24 01:25:00,1962E-3,5C000000,-0724,0853,11959,033.0,045.7,0.478,730.0,01.19,0.508
2014-05-24 01:26:00,1875E-3,5C000000,-0724,0852,11774,033.0,045.7,0.478,730.0,01.19,0.508
2014-05-24 01:27:00,1886E-3,5C000000,-0724,0853,11938,033.0,045.7,0.478,730.0,01.19,0.508
2014-05-24 01:28:00,1778E-3,5C000000,-0724,0852,12001,033.0,045.7,0.478,730.0,01.19,0.508
2014-05-24 01:29:00,1899E-3,5C000000,-0724,0852,11973,033.0,045.6,0.478,730.0,01.19,0.508
2014-05-24 01:30:00,1833E-3,5C000000,-0724,0853,12152,033.0,045.7,0.478,730.0,01.19,0.508
2014-05-24 01:31:00,1952E-3,5C000000,-0724,0853,12038,033.0,045.7,0.478,730.0,01.19,0.508
2014-05-24 01:32:00,1842E-3,5C000000,-0724,0853,12024,033.0,045.7,0.478,730.0,01.19,0.508
2014-05-24 01:33:00,1778E-3,5C000000,-0724,0853,12044,033.0,045.7,0.478,730.0,01.19,0.508
2014-05-24 01:34:00,1928E-3,5C000000,-0724,0853,12019,033.0,045.7,0.478,730.0,01.19,0.508
2014-05-24 01:35:00,1995E-3,5C000000,-0724,0852,11916,033.0,045.7,0.478,730.0,01.19,0.508
2014-05-24 01:36:00,1877E-3,5C000000,-0724,0852,11969,033.1,045.7,0.478,730.0,01.19,0.508
2014-05-24 01:37:00,1881E-3,5C000000,-0724,0853,11867,033.1,045.7,0.478,730.0,01.19,0.508
2014-05-24 01:38:00,1763E-3,5C000000,-0724,0851,11781,033.1,045.7,0.478,730.0,01.19,0.508
2014-05-24 01:39:00,1826E-3,5C000000,-0724,0853,11741,033.1,045.7,0.477,730.0,01.19,0.508
2014-05-24 01:40:00,1915E-3,5C000000,-0724,0853,11871,033.1,045.7,0.478,730.0,01.19,0.508
2014-05-24 01:41:00,1881E-3,5C000000,-0724,0852,11969,033.1,045.7,0.478,730.0,01.19,0.508
2014-05-24 01:42:00,2104E-3,5C000000,-0724,0853,11894,033.1,045.7,0.478,730.0,01.19,0.508
2014-05-24 01:43:00,1970E-3,5C000000,-0724,0853,12048,033.1,045.7,0.478,730.0,01.19,0.508
2014-05-24 01:44:00,1918E-3,5C000000,-0724,0853,11864,033.1,045.7,0.477,730.0,01.19,0.508
2014-05-24 01:45:00,1857E-3,5C000000,-0724,0853,11959,033.1,045.7,0.478,730.0,01.19,0.508
2014-05-24 01:46:00,1905E-3,5C000000,-0724,0853,12091,033.1,045.7,0.478,730.0,01.19,0.508
2014-05-24 01:47:00,1922E-3,5C000000,-0724,0852,11980,033.1,045.7,0.477,730.0,01.19,0.508
2014-05-24 01:48:00,1936E-3,5C000000,-0724,0852,11842,033.1,045.7,0.478,730.0,01.19,0.508
2014-05-24 01:49:00,1953E-3,5C000000,-0724,0851,11871,033.1,045.7,0.478,730.0,01.19,0.508
2014-05-24 01:50:00,1951E-3,5C000000,-0724,0853,12012,033.1,045.6,0.477,730.0,01.19,0.508
2014-05-24 01:51:00,1801E-3,5C000000,-0724,0853,11914,033.2,045.7,0.478,730.0,01.19,0.508
2014-05-24 01:52:00,1830E-3,5C000000,-0724,0853,11954,033.2,045.7,0.478,730.0,01.19,0.508
2014-05-24 01:53:00,1926E-3,5C000000,-0724,0853,11728,033.2,045.6,0.477,729.9,01.19,0.508
2014-05-24 01:54:00,1811E-3,5C000000,-0724,0853,11956,033.2,045.7,0.478,730.0,01.19,0.508
2014-05-24 01:55:00,1798E-3,5C000000,-0724,0852,12082,033.2,045.7,0.478,729.9,01.19,0.508
2014-05-24 01:56:00,1802E-3,5C000000,-0724,0853,12025,033.2,045.7,0.477,730.0,01.19,0.508
2014-05-24 01:57:00,1912E-3,5C000000,-0724,0853,11935,033.2,045.7,0.478,730.0,01.19,0.508
2014-05-24 01:58:00,1858E-3,5C000000,-0724,0853,11947,033.2,045.7,0.478,730.0,01.19,0.508
2014-05-24 01:59:00,1978E-3,5C000000,-0724,0853,11990,033.2,045.7,0.477,730.0,01.19,0.508
2014-05-24 02:00:00,1888E-3,5C000000,-0724,0853,11911,033.2,045.7,0.478,730.0,01.19,0.508
2014-05-24 02:01:00,1901E-3,5C000000,-0724,0854,11644,033.2,045.7,0.478,730.0,01.19,0.508
2014-05-24 02:02:00,1878E-3,5C000000,-0724,0853,11963,033.2,045.7,0.478,730.0,01.19,0.508
2014-05-24 02:03:00,1916E-3,5C000000,-0724,0853,11930,033.2,045.7,0.477,730.0,01.19,0.508
2014-05-24 02:04:00,1899E-3,5C000000,-0724,0853,11852,033.2,045.7,0.478,730.1,01.19,0.508
2014-05-24 02:05:00,2035E-3,5C000000,-0724,0853,11870,033.2,045.7,0.478,730.1,01.19,0.508
2014-05-24 02:06:00,1806E-3,5C000000,-0724,0853,12078,033.2,045.7,0.477,730.1,01.19,0.508
2014-05-24 02:07:00,1891E-3,5C000000,-0724,0853,11876,033.3,045.7,0.477,730.0,01.19,0.508
2014-05-24 02:08:00,1867E-3,5C000000,-0724,0854,11964,033.3,045.7,0.478,730.1,01.19,0.508
2014-05-24 02:09:00,1806E-3,5C000000,-0724,0853,12040,033.3,045.7,0.478,730.1,01.19,0.508
2014-05-24 02:10:00,1950E-3,5C000000,-0724,0854,12090,033.3,045.7,0.477,730.1,01.19,0.508
2014-05-24 02:11:00,1955E-3,5C000000,-0724,0852,12070,033.3,045.7,0.478,730.1,01.19,0.508
2014-05-24 02:12:00,1828E-3,5C000000,-0724,0854,12038,033.3,045.7,0.478,730.1,01.19,0.508
2014-05-24 02:13:00,1838E-3,5C000000,-0724,0853,11885,033.3,045.7,0.477,730.0,01.19,0.508
2014-05-24 02:14:00,1766E-3,5C000000,-0724,0853,11796,033.3,045.7,0.477,730.1,01.19,0.508
2014-05-24 02:15:00,1779E-3,5C000000,-0724,0852,11949,033.3,045.7,0.478,730.1,01.19,0.508
2014-05-24 02:16:00,1766E-3,5C000000,-0724,0853,12013,033.3,045.7,0.478,730.1,01.19,0.508
2014-05-24 02:17:00,1709E-3,5C000000,-0724,0853,11907,033.4,045.7,0.477,730.1,01.19,0.508
2014-05-24 02:18:00,1912E-3,5C000000,-0724,0853,12055,033.3,045.7,0.477,730.1,01.19,0.508
2014-05-24 02:19:00,1930E-3,5C000000,-0724,0852,12055,033.3,045.7,0.478,730.1,01.19,0.508
2014-05-24 02:20:00,1826E-3,5C000000,-0724,0853,11991,033.3,045.7,0.477,730.1,01.19,0.508
2014-05-24 02:21:00,1930E-3,5C000000,-0724,0853,11955,033.4,045.7,0.477,730.1,01.19,0.508
2014-05-24 02:22:00,1854E-3,5C000000,-0724,0853,11989,033.4,045.7,0.478,730.1,01.19,0.508
2014-05-24 02:23:00,1896E-3,5C000000,-0724,0853,12110,033.4,045.7,0.478,730.2,01.19,0.508
2014-05-24 02:24:00,1944E-3,5C000000,-0724,0853,11936,033.4,045.7,0.477,730.1,01.19,0.508
2014-05-24 02:25:00,1821E-3,5C000000,-0724,0851,12028,033.4,045.7,0.477,730.2,01.19,0.508
2014-05-24 02:26:00,1829E-3,5C000000,-0724,0852,11992,033.4,045.7,0.478,730.1,01.19,0.508
2014-05-24 02:27:00,1954E-3,5C000000,-0724,0854,12075,033.4,045.7,0.478,730.1,01.19,0.508
2014-05-24 02:28:00,1726E-3,5C000000,-0724,0853,11910,033.4,045.7,0.477,730.1,01.19,0.508
2014-05-24 02:29:00,1787E-3,5C000000,-0724,0854,11968,033.4,045.7,0.477,730.1,01.19,0.508
2014-05-24 02:30:00,1790E-3,5C000000,-0724,0853,11808,033.4,045.7,0.478,730.1,01.19,0.508
2014-05-24 02:31:00,1927E-3,5C000000,-0724,0853,11967,033.4,045.7,0.477,730.1,01.19,0.508
2014-05-24 02:32:00,1851E-3,5C000000,-0724,0853,12057,033.4,045.7,0.477,730.1,01.19,0.508
2014-05-24 02:33:00,1893E-3,5C000000,-0724,0853,11951,033.4,045.7,0.477,730.1,01.19,0.508
2014-05-24 02:34:00,1821E-3,5C000000,-0724,0853,11982,033.4,045.7,0.478,730.1,01.19,0.508
2014-05-24 02:35:00,1850E-3,5C000000,-0724,0853,12039,033.5,045.7,0.477,730.1,01.19,0.508
2014-05-24 02:36:00,1742E-3,5C000000,-0724,0853,11961,033.5,045.7,0.477,730.2,01.19,0.508
2014-05-24 02:37:00,1872E-3,5C000000,-0724,0852,11997,033.5,045.7,0.477,730.1,01.19,0.508
2014-05-24 02:38:00,1832E-3,5C000000,-0724,0852,11942,033.5,045.7,0.477,730.2,01.19,0.508
2014-05-24 02:39:00,1989E-3,5C000000,-0724,0853,11924,033.5,045.7,0.477,730.2,01.19,0.508
2014-05-24 02:40:00,1917E-3,5C000000,-0724,0853,12019,033.5,045.7,0.478,730.2,01.19,0.508
2014-05-24 02:41:00,1823E-3,5C000000,-0724,0853,11972,033.5,045.7,0.477,730.2,01.19,0.508
2014-05-24 02:42:00,1822E-3,5C000000,-0724,0853,12143,033.5,045.7,0.477,730.2,01.19,0.508
2014-05-24 02:43:00,1878E-3,5C000000,-0724,0854,11963,033.5,045.7,0.477,730.2,01.19,0.508
2014-05-24 02:44:00,1855E-3,5C000000,-0724,0853,12048,033.5,045.7,0.477,730.2,01.19,0.508
2014-05-24 02:45:00,1766E-3,5C000000,-0724,0853,11989,033.5,045.7,0.478,730.2,01.19,0.508
2014-05-24 02:46:00,1803E-3,5C000000,-0724,0853,11883,033.5,045.7,0.477,730.3,01.19,0.508
2014-05-24 02:47:00,1849E-3,5C000000,-0724,0853,11996,033.5,045.7,0.477,730.3,01.19,0.508
2014-05-24 02:48:00,1850E-3,5C000000,-0724,0853,12009,033.5,045.7,0.477,730.3,01.19,0.508
2014-05-24 02:49:00,1918E-3,5C000000,-0724,0852,11938,033.5,045.7,0.478,730.3,01.19,0.508
2014-05-24 02:50:00,1824E-3,5C000000,-0724,0854,12051,033.5,045.7,0.477,730.3,01.19,0.508
2014-05-24 02:51:00,1898E-3,5C000000,-0724,0854,12031,033.5,045.7,0.477,730.4,01.19,0.508
2014-05-24 02:52:00,1819E-3,5C000000,-0724,0853,11997,033.6,045.7,0.477,730.4,01.19,0.508
2014-05-24 02:53:00,1901E-3,5C000000,-0724,0853,11963,033.5,045.7,0.477,730.4,01.19,0.508
2014-05-24 02:54:00,1822E-3,5C000000,-0724,0854,11894,033.6,045.7,0.478,730.4,01.19,0.508
2014-05-24 02:55:00,1846E-3,5C000000,-0724,0853,12008,033.6,045.7,0.477,730.4,01.19,0.508
2014-05-24 02:56:00,1793E-3,5C000000,-0724,0854,11963,033.6,045.7,0.477,730.4,01.19,0.508
2014-05-24 02:57:00,1778E-3,5C000000,-0724,0853,12042,033.6,045.7,0.477,730.4,01.19,0.508
2014-05-24 02:58:00,1848E-3,5C000000,-0724,0852,12156,033.6,045.7,0.477,730.4,01.19,0.508
2014-05-24 02:59:00,1895E-3,5C000000,-0724,0853,12110,033.6,045.7,0.478,730.5,01.19,0.508
2014-05-24 03:00:00,1867E-3,5C000000,-0724,0853,11802,033.6,045.7,0.477,730.5,01.19,0.508
2014-05-24 03:01:00,1862E-3,5C000000,-0724,0852,11996,033.6,045.7,0.477,730.5,01.19,0.508
2014-05-24 03:02:00,1801E-3,5C000000,-0724,0853,11961,033.6,045.7,0.477,730.5,01.19,0.508
2014-05-24 03:03:00,1925E-3,5C000000,-0724,0853,12030,033.6,045.7,0.477,730.5,01.19,0.508
2014-05-24 03:04:00,1891E-3,5C000000,-0724,0853,12072,033.6,045.7,0.477,730.5,01.19,0.508
2014-05-24 03:05:00,1840E-3,5C000000,-0724,0853,11943,033.6,045.7,0.477,730.5,01.19,0.508
2014-05-24 03:06:00,1847E-3,5C000000,-0724,0854,11911,033.6,045.7,0.477,730.5,01.19,0.508
2014-05-24 03:07:00,1780E-3,5C000000,-0724,0853,11926,033.6,045.7,0.477,730.5,01.19,0.508
2014-05-24 03:08:00,1808E-3,5C000000,-0724,0853,12099,033.6,045.7,0.477,730.5,01.19,0.508
2014-05-24 03:09:00,1989E-3,5C000000,-0724,0854,11907,033.6,045.7,0.477,730.5,01.19,0.508
2014-05-24 03:10:00,1784E-3,5C000000,-0724,0853,11919,033.6,045.7,0.478,730.5,01.19,0.508
2014-05-24 03:11:00,1871E-3,5C000000,-0724,0853,12032,033.6,045.7,0.477,730.5,01.19,0.508
2014-05-24 03:12:00,1817E-3,5C000000,-0724,0853,12146,033.6,045.7,0.477,730.5,01.19,0.508
2014-05-24 03:13:00,1778E-3,5C000000,-0724,0853,11981,033.6,045.7,0.477,730.5,01.19,0.508
2014-05-24 03:14:00,1850E-3,5C000000,-0724,0853,11837,033.7,045.7,0.477,730.5,01.19,0.508
2014-05-24 03:15:00,1759E-3,5C000000,-0724,0853,11882,033.7,045.7,0.477,730.5,01.19,0.508
2014-05-24 03:16:00,1893E-3,5C000000,-0724,0853,11921,033.7,045.7,0.477,730.5,01.19,0.508
2014-05-24 03:17:00,1757E-3,5C000000,-0724,0853,12071,033.7,045.7,0.477,730.5,01.19,0.508
2014-05-24 03:18:00,1904E-3,5C000000,-0724,0854,12050,033.7,045.7,0.477,730.4,01.19,0.508
2014-05-24 03:19:00,1838E-3,5C000000,-0724,0853,11960,033.7,045.7,0.477,730.5,01.19,0.508
2014-05-24 03:20:00,1955E-3,5C000000,-0724,0854,11845,033.7,045.7,0.477,730.5,01.19,0.508
2014-05-24 03:21:00,1867E-3,5C000000,-0724,0853,11950,033.7,045.7,0.477,730.5,01.19,0.508
2014-05-24 03:22:00,1871E-3,5C000000,-0724,0854,11918,033.7,045.7,0.477,730.5,01.19,0.508
2014-05-24 03:23:00,2038E-3,5C000000,-0724,0854,12042,033.7,045.7,0.477,730.5,01.19,0.508
2014-05-24 03:24:00,1795E-3,5C000000,-0724,0853,11916,033.7,045.7,0.477,730.5,01.19,0.508
2014-05-24 03:25:00,1801E-3,5C000000,-0724,0854,11989,033.7,045.7,0.477,730.5,01.19,0.508
2014-05-24 03:26:00,1792E-3,5C000000,-0724,0854,11938,033.7,045.7,0.477,730.5,01.19,0.508
2014-05-24 03:27:00,1789E-3,5C000000,-0724,0853,11776,033.7,045.7,0.477,730.5,01.19,0.508
2014-05-24 03:28:00,1851E-3,5C000000,-0724,0854,11989,033.7,045.7,0.477,730.5,01.19,0.508
2014-05-24 03:29:00,1850E-3,5C000000,-0724,0853,11881,033.7,045.7,0.477,730.6,01.19,0.508
2014-05-24 03:30:00,1970E-3,5C000000,-0724,0853,12002,033.7,045.7,0.477,730.6,01.19,0.508
2014-05-24 03:31:00,1824E-3,5C000000,-0724,0853,12020,033.7,045.7,0.477,730.6,01.19,0.508
2014-05-24 03:32:00,1818E-3,5C000000,-0724,0853,11853,033.7,045.7,0.477,730.6,01.19,0.508
2014-05-24 03:33:00,1907E-3,5C000000,-0724,0854,12011,033.7,045.7,0.477,730.6,01.19,0.508
2014-05-24 03:34:00,1809E-3,5C000000,-0724,0853,11996,033.7,045.7,0.477,730.6,01.19,0.508
2014-05-24 03:35:00,1820E-3,5C000000,-0724,0853,11851,033.8,045.7,0.477,730.6,01.19,0.508
2014-05-24 03:36:00,1796E-3,5C000000,-0724,0854,12033,033.8,045.7,0.477,730.6,01.19,0.508
2014-05-24 03:37:00,1828E-3,5C000000,-0724,0854,12098,033.8,045.7,0.477,730.6,01.19,0.508
2014-05-24 03:38:00,1949E-3,5C000000,-0724,0854,11983,033.8,045.7,0.477,730.6,01.19,0.508
2014-05-24 03:39:00,1759E-3,5C000000,-0724,0853,12141,033.8,045.7,0.477,730.6,01.19,0.508
2014-05-24 03:40:00,1811E-3,5C000000,-0724,0854,11915,033.8,045.7,0.477,730.7,01.19,0.508
2014-05-24 03:41:00,1852E-3,5C000000,-0724,0854,11986,033.8,045.7,0.477,730.6,01.19,0.508
2014-05-24 03:42:00,1892E-3,5C000000,-0724,0852,11991,033.8,045.7,0.477,730.6,01.19,0.508
2014-05-24 03:43:00,1819E-3,5C000000,-0724,0853,11833,033.8,045.7,0.477,730.6,01.19,0.508
2014-05-24 03:44:00,1901E-3,5C000000,-0724,0853,11956,033.8,045.7,0.477,730.6,01.19,0.508
2014-05-24 03:45:00,1893E-3,5C000000,-0724,0853,11926,033.8,045.7,0.477,730.7,01.19,0.508
2014-05-24 03:46:00,1882E-3,5C000000,-0724,0852,11849,033.8,045.7,0.477,730.7,01.19,0.508
2014-05-24 03:47:00,1959E-3,5C000000,-0724,0853,11890,033.8,045.7,0.477,730.7,01.19,0.508
2014-05-24 03:48:00,1833E-3,5C000000,-0724,0853,11877,033.8,045.7,0.477,730.7,01.19,0.508
2014-05-24 03:49:00,1820E-3,5C000000,-0724,0853,11868,033.8,045.7,0.477,730.8,01.19,0.508
2014-05-24 03:50:00,1819E-3,5C000000,-0724,0854,12025,033.8,045.7,0.477,730.8,01.19,0.508
2014-05-24 03:51:00,1868E-3,5C000000,-0724,0854,12017,033.8,045.7,0.477,730.8,01.19,0.508
2014-05-24 03:52:00,1772E-3,5C000000,-0724,0854,12158,033.8,045.7,0.477,730.8,01.19,0.508
2014-05-24 03:53:00,1782E-3,5C000000,-0724,0853,11879,033.8,045.7,0.477,730.8,01.19,0.508
2014-05-24 03:54:00,1813E-3,5C000000,-0724,0852,11854,033.9,045.7,0.477,730.8,01.19,0.508
2014-05-24 03:55:00,1950E-3,5C000000,-0724,0854,11974,033.8,045.7,0.477,730.8,01.19,0.508
2014-05-24 03:56:00,1883E-3,5C000000,-0724,0852,11918,033.8,045.7,0.477,730.8,01.19,0.508
2014-05-24 03:57:00,1802E-3,5C000000,-0724,0853,11822,033.9,045.7,0.477,730.8,01.19,0.508
2014-05-24 03:58:00,1864E-3,5C000000,-0724,0853,12054,033.9,045.7,0.477,730.8,01.19,0.508
2014-05-24 03:59:00,1849E-3,5C000000,-0724,0854,11967,033.8,045.7,0.477,730.8,01.19,0.508
2014-05-24 04:00:00,1807E-3,5C000000,-0724,0854,12009,033.9,045.7,0.477,730.8,01.19,0.508
2014-05-24 04:01:00,1856E-3,5C000000,-0724,0854,12005,033.8,045.7,0.477,730.8,01.19,0.508
2014-05-24 04:02:00,1770E-3,5C000000,-0724,0853,11897,033.9,045.7,0.477,730.9,01.19,0.508
2014-05-24 04:03:00,1861E-3,5C000000,-0724,0855,11987,033.9,045.7,0.477,730.9,01.19,0.508
2014-05-24 04:04:00,1723E-3,5C000000,-0724,0853,11847,033.9,045.7,0.477,730.9,01.19,0.508
2014-05-24 04:05:00,1930E-3,5C000000,-0724,0853,12099,033.9,045.7,0.477,730.9,01.19,0.508
2014-05-24 04:06:00,2034E-3,5C000000,-0724,0854,11846,033.9,045.7,0.477,730.9,01.19,0.508
2014-05-24 04:07:00,1803E-3,5C000000,-0724,0854,12014,033.9,045.7,0.477,730.9,01.19,0.508
2014-05-24 04:08:00,1919E-3,5C000000,-0724,0853,11884,033.9,045.7,0.477,730.9,01.19,0.508
2014-05-24 04:09:00,1704E-3,5C000000,-0724,0854,12077,033.9,045.7,0.477,731.0,01.19,0.508
2014-05-24 04:10:00,1914E-3,5C000000,-0724,0854,11655,033.9,045.7,0.477,731.0,01.19,0.508
2014-05-24 04:11:00,1778E-3,5C000000,-0724,0853,11830,033.9,045.7,0.477,731.0,01.19,0.508
2014-05-24 04:12:00,1795E-3,5C000000,-0724,0854,12103,033.9,045.7,0.477,731.0,01.19,0.508
2014-05-24 04:13:00,1788E-3,5C000000,-0724,0854,12073,033.9,045.7,0.477,731.0,01.19,0.508
2014-05-24 04:14:00,1760E-3,5C000000,-0724,0854,11976,033.9,045.7,0.477,731.0,01.19,0.508
2014-05-24 04:15:00,1774E-3,5C000000,-0724,0854,12220,033.9,045.7,0.477,731.0,01.19,0.508
2014-05-24 04:16:00,1723E-3,5C000000,-0724,0853,11941,033.9,045.7,0.477,731.0,01.19,0.508
2014-05-24 04:17:00,1884E-3,5C000000,-0724,0854,12058,033.9,045.7,0.477,731.0,01.19,0.508
2014-05-24 04:18:00,1908E-3,5C000000,-0724,0854,12067,033.9,045.7,0.477,731.0,01.19,0.508
2014-05-24 04:19:00,1866E-3,5C000000,-0724,0854,12038,033.9,045.7,0.477,731.0,01.19,0.508
2014-05-24 04:20:00,1916E-3,5C000000,-0724,0854,11909,033.9,045.7,0.477,731.0,01.19,0.508